Find Arirang-5

NORAD ID: 39227 Int'l Des: 2013-042 Owner: KARI Country: KR operational
LEOCIRCULARRETROGRADESSO

Live Position

Loading 3D Globe...

About Arirang-5

Description loading...

Upcoming Passes

Passes for default location (London). Set your location on the main map for personalized predictions.

Altitude History

Loading altitude history...

Two-Line Element Set

1 39227U 13042A 26107.31088823 .00000480 00000-0 38659-4 0 9999
2 39227 97.6217 294.8626 0003546 16.9019 343.2324 15.04480648694705
Epoch: Apr 17, 2026 • Age: 10 hours

Current Status

Altitude 565.6 km
Velocity 7.59 km/s
Sub-Earth Point 80.37°N, 136.59°E
Launch Date Aug 22, 2013
Age 12.6 years
Type earth observation

Technical Details

Classification Payload
Mass 1400.00 kg
Dry Mass 1400.00 kg
Total Mass 1400.00 kg
Length 4.00 m
Diameter 2.40 m
Span 7.00 m
Shape Hex + panels
Manufacturer KARI
Bus Type Kompsat
Phase Status In Orbit
Owner/State KARI/KR

Most Searched